Home   Weather   Sydney   Past weeks

Flag for Australia Past Weather in Sydney, New South Wales, Australia — Yesterday and Last 2 Weeks

63 °F

Partly sunny.

Feels Like: 63 °F
Forecast: 59 / 65 °F
Wind: 7 mph from West

Location: Sydney Airport

Current Time: Oct 28, 2016 at 9:45:08 AM

Latest Report: Oct 28, 2016 at 9:00 AM

Visibility: N/A

Pressure: 30.12 "Hg

Humidity: 73%

Dew Point: 54 °F

Location of SydneyLocation

Past Weather in Sydney — Graph


Sydney Temperature Yesterday

Maximum temperature yesterday: 70 °F (at 12:00 AM)
Minimum temperature yesterday: 59 °F (at 8:30 PM)
Average temperature yesterday: 65 °F

High & Low Weather Summary for the Past Weeks

High82 °F (Oct 16, 12:00 PM)100% (Oct 22, 5:54 AM)30.30 "Hg (Oct 22, 5:54 AM)
Low48 °F (Oct 14, 3:30 AM)15% (Oct 15, 1:00 PM)29.62 "Hg (Oct 17, 2:30 AM)
Average65 °F54%30.00 "Hg
* Reported Oct 13 8:00 AM — Oct 28 8:00 AM, Sydney, Weather by CustomWeather, © 2016

Note: Actual official high and low records may vary slightly from our data, if they occured in-between our weather recording intervals... More about our weather records


Sydney Weather History for the Previous 24 Hours

Scroll right to see more
Time TempWeatherWind HumidityBarometerVisibility
8:00 AM
Fri, Oct 28
61 °FScattered showers. Partly sunny.8 mph72%30.12 "HgN/A
7:30 AM61 °FPartly sunny.8 mph72%30.09 "HgN/A
7:00 AM61 °FBroken clouds.9 mph72%30.09 "HgN/A
6:30 AM59 °FScattered showers. Partly sunny.8 mph77%30.09 "HgN/A
6:00 AM61 °FDrizzle. Partly sunny.8 mph77%30.09 "HgN/A
5:30 AM59 °FPartly cloudy.10 mph77%30.09 "Hg6 mi
5:00 AM61 °FScattered showers. Passing clouds.13 mph72%30.07 "HgN/A
3:00 AM61 °FSprinkles. Partly cloudy.13 mph68%30.09 "HgN/A
2:00 AM63 °FScattered showers. Partly cloudy.12 mph56%30.09 "HgN/A
12:00 AM61 °FScattered showers. Passing clouds.15 mph63%30.12 "HgN/A
11:00 PM
Thu, Oct 27
61 °FScattered showers. Partly cloudy.15 mph72%30.12 "HgN/A
10:30 PM61 °FScattered showers. Partly cloudy.18 mph77%30.12 "HgN/A
10:00 PM61 °FScattered showers. Partly cloudy.20 mph77%30.12 "HgN/A
9:30 PM61 °FScattered showers. Passing clouds.20 mph77%30.12 "HgN/A
9:00 PM59 °FSprinkles. Partly cloudy.20 mph88%30.09 "HgN/A
8:30 PM59 °FSprinkles. Partly cloudy.21 mph94%30.09 "Hg4 mi
8:00 PM61 °FSprinkles. Passing clouds.21 mph88%30.07 "Hg4 mi
7:30 PM61 °FPartly cloudy.17 mph83%30.07 "Hg4 mi
7:00 PM63 °FDrizzle. Broken clouds.20 mph83%30.07 "Hg6 mi
6:30 PM61 °FDrizzle. Partly sunny.21 mph88%30.04 "Hg4 mi
6:00 PM61 °FDrizzle. Broken clouds.20 mph94%30.04 "Hg3 mi
5:30 PM63 °FDrizzle. Partly sunny.21 mph88%30.01 "Hg4 mi
5:00 PM64 °FDrizzle. Partly sunny.20 mph83%30.01 "HgN/A
4:30 PM66 °FPartly sunny.18 mph73%30.01 "HgN/A
4:00 PM66 °FPartly sunny.20 mph68%29.98 "HgN/A
3:30 PM66 °FPartly sunny.18 mph68%29.98 "HgN/A
3:00 PM66 °FPartly sunny.18 mph68%29.98 "HgN/A
2:30 PM66 °FPartly sunny.18 mph68%29.98 "HgN/A
2:00 PM68 °FPartly sunny.16 mph64%30.01 "HgN/A
1:30 PM68 °FPartly sunny.16 mph64%30.01 "HgN/A
1:00 PM68 °FPartly sunny.17 mph64%30.01 "HgN/A
12:30 PM70 °FPartly sunny.15 mph60%30.01 "HgN/A
12:00 PM70 °FPartly sunny.16 mph60%30.01 "HgN/A
11:30 AM70 °FPartly sunny.17 mph60%30.01 "HgN/A
11:00 AM68 °FPartly sunny.16 mph69%30.01 "HgN/A
10:30 AM68 °FPartly sunny.16 mph69%30.01 "HgN/A
10:00 AM68 °FPartly sunny.17 mph73%30.01 "HgN/A
9:00 AM68 °FScattered clouds.18 mph69%29.98 "HgN/A
Weather by CustomWeather, © 2016

See weather overviewHow to use our weather pages